User: anonymous   Login
Location: Unspecified
(0.0000°N, 0.0000°E)
Time: 01:36:53
(UTC+00:00)
Language:

Feng Yun 1-B - Orbit

View from above orbital plane
View from above orbital plane
View from above satellite
View from above satellite

Ground track
Ground track

The orbit data is extracted from the following two-line orbital elements,

1 20788U 90081A   18021.86339558 +.00000059 +00000-0 +65811-4 0  9991
2 20788 098.8276 047.3938 0015374 249.9215 110.0297 14.02662260401355
Epoch (UTC): 21 January 2018 20:43:17
Eccentricity: 0.0015374
inclination: 98.8276°
perigee height: 873 km
apogee height: 896 km
right ascension of ascending node: 47.3938°
argument of perigee: 249.9215°
revolutions per day: 14.02662260
mean anomaly at epoch: 110.0297°
orbit number at epoch: 40135

The dashed part of the orbit path shows where the satellite is in the earth's shadow,  

DLR